RADUGA 17 [-]

Last updated on Jan. 23, 2021, 7:21 a.m. UTC

1 16250U 85107A   21022.82947712 -.00000098  00000-0  00000-0 0  9990
2 16250  12.8718 333.6919 0009634 166.5287  84.6228  1.00191621131921
UTC
Height (km)
Latitude
Longitude
Inclination
Orbital Period
UTC large
Height (km)
Speed (km/s)
/
Latitude / Longitude
Inclination (degrees)
Orbital Period (minutes)
Azimuth
Elevation
Range (km)
Doppler Factor
iOS Compass Heading
iOS Angle

Next 30 passes for location: Hong Kong

Rise time Rise Azimuth (degrees) Set time Set Azimuth (degrees) Duration Max altitude (degrees)

No matching passes for this satellites